リネ彗星

373P/Rinner (2026)

English version
Home page
Updated on August 11, 2025

---------------------------------------------------------------------

・ プロフィール

・ 軌道要素

Epoch 2026 Aug. 28.0 TT = JDT 2461280.5
T 2026 Sept. 5.02901 TT                                 MPCW
q   2.3009991            (2000.0)            P               Q
n   0.13320366     Peri.  221.16067     -0.03930106     -0.98148733
a   3.7971574      Node   231.94629     +0.96775678     +0.00932286
e   0.3940206      Incl.   13.77170     +0.24880161     -0.19130004
P   7.40
From 782 observations 2011 Nov. 28-2019 Apr. 1, mean residual 0".6.

・ 光度変化

        m1 = 5.0 + 5 logΔ + 30.0 log r

---------------------------------------------------------------------

軌道要素はM.P.E.C. 2019-J142に掲載されたものです。
光度グラフはComet for Windowsで作成したものです。

---------------------------------------------------------------------

Copyright(C) Seiichi Yoshida (comet@aerith.net). All rights reserved.